Weather in Sofiivka

Ukraine / Dnipropetrovsk Region     48°02′49″N   33°52′04″E
temp.,
°C
wind,
m/s
gust,
m/s
humid.,
%
clouds,
%
prec.,
mm/h
press.,
hPa
HPBL,
m
13 may, thu
thu1300:00+6e11905 0.0 101210
03:00+6ssw11913 0.0 101210
06:00+6wsw1192100 0.0 101215
09:00+12sse22640 0.0 1012574
12:00+16sse344889 0.0 10121290
15:00+18sse4445100 0.0 10121164
18:00+18sse235595 0.0 1012163
21:00+13ese4570100 0.0 101154
14 may, fri
fri1400:00+12ese348299 0.0 101157
03:00+11ese348710 0.0 101049
06:00+12ese35955 0.0 100999
09:00+17s4674100 0.0 1009493
12:00+22ssw5748100 0.1 10091143
15:00+22s6748100 0.1 10091484
18:00+22s68550 0.0 1009942
21:00+16sw410760 0.0 1010214
15 may, sat
sat1500:00+13ssw488135 0.0 1011144
03:00+11ssw49880 0.0 1012173
06:00+12ssw37920 0.0 1012152
09:00+18sw46661 0.0 1013547
12:00+22sw5648100 0.0 10131899
15:00+23sw4544100 0.0 10132275
18:00+21sw3658100 0.0 1013296
21:00+17wsw226438 0.0 101313
16 may, sun
sun1600:00+15wnw11705 0.0 101311
03:00+14n22750 0.0 101310
06:00+14ne337816 0.0 101341
09:00+20ene4560100 0.0 1013418
12:00+24e454799 0.0 10121607
15:00+25e5542100 0.0 10112019
18:00+24ne4652100 0.0 1009585
21:00+19nne4116899 0.0 1008197
17 may, mon
mon1700:00+17nne61379100 2.1 1007251
03:00+16n4692100 6.3 1006126
06:00+16n3592100 2.6 1005110
09:00+20ne477558 2.8 1003323
12:00+24sw12597 0.0 10041034
15:00+26sw335465 0.4 10031393
18:00+22w657414 1.9 1004816
21:00+16w589012 2.4 1007281